Date String (YYYY-MM-DD hh:mm:ss) UTC,Instrument flags,Ambient pressure (hPa),Sample flow (lpm),Bypass flow (lpm),Sample temperature (°C),Ambient temperature (°C),ASC tube jacket temperature (°C),LED temperature (°C),Box temperature (°C),Sample RH (%),Span deviation,Mass concentration (μg/m³),Mass concentration (μg/m³),Mass concentration (μg/m³)
DateTimeUTC,F1_M11,P_M11,Q1_M11,Q2_M11,T1_M11,T2_M11,T3_M11,T4_M11,T5_M11,U1_M11,ZSPAN_M11,X0_M11,X2_M11,X1_M11
2022-07-06 00:00:00,,0826.5,5.00,0.00,29.3,28.1,00.0,38.0,31.3,26.4,0000.0,0004.50,0002.14,0001.48
2022-07-06 00:01:00,,0826.5,5.00,0.00,29.4,28.2,00.0,38.1,31.3,26.5,0000.0,0003.99,0002.11,0001.48
2022-07-06 00:02:00,,0826.5,5.00,0.00,29.4,28.3,00.0,38.1,31.4,26.3,0000.0,0004.02,0002.11,0001.48
2022-07-06 00:03:00,,0826.4,5.00,0.00,29.4,28.4,00.0,38.1,31.4,26.2,0000.0,0004.15,0002.16,0001.49
2022-07-06 00:04:00,,0826.4,4.99,0.00,29.5,28.1,00.0,38.1,31.4,26.2,0000.0,0004.02,0002.12,0001.50
2022-07-06 00:05:00,,0826.4,5.01,0.00,29.4,27.3,00.0,38.0,31.3,26.0,0000.0,0004.17,0002.14,0001.51
2022-07-06 00:06:00,,0826.4,5.00,0.00,29.4,26.9,00.0,38.0,31.2,25.7,0000.0,0003.97,0002.13,0001.51
2022-07-06 00:07:00,,0826.4,5.00,0.00,29.3,26.8,00.0,38.0,31.1,25.6,0000.0,0003.76,0002.13,0001.51
2022-07-06 00:08:00,,0826.5,4.99,0.00,29.2,26.9,00.0,38.0,31.0,25.7,0000.0,0003.84,0002.17,0001.52
2022-07-06 00:09:00,,0826.4,5.00,0.00,29.2,27.1,00.0,38.0,31.0,25.8,0000.0,0003.89,0002.18,0001.53
2022-07-06 00:10:00,,0826.5,5.00,0.00,29.2,27.3,00.0,38.0,31.0,26.0,0000.0,0003.79,0002.16,0001.53
2022-07-06 00:11:00,,0826.5,5.00,0.00,29.2,27.5,00.0,38.0,31.1,26.0,0000.0,0003.83,0002.13,0001.53
2022-07-06 00:12:00,,0826.4,5.00,0.00,29.2,27.6,00.0,38.0,31.1,26.0,0000.0,0003.80,0002.12,0001.53
2022-07-06 00:13:00,,0826.5,4.99,0.00,29.2,27.8,00.0,38.0,31.2,25.7,0000.0,0003.87,0002.14,0001.52
2022-07-06 00:14:00,,0826.5,5.00,0.00,29.3,27.9,00.0,38.0,31.2,25.8,0000.0,0003.71,0002.09,0001.52
2022-07-06 00:15:00,,0826.5,5.01,0.00,29.3,28.1,00.0,38.0,31.3,25.6,0000.0,0003.78,0002.12,0001.50
2022-07-06 00:16:00,,0826.4,4.98,0.00,29.3,28.2,00.0,38.0,31.3,25.6,0000.0,0003.64,0002.10,0001.49
2022-07-06 00:17:00,,0826.4,5.00,0.00,29.4,28.3,00.0,38.1,31.3,25.6,0000.0,0003.70,0002.11,0001.48
2022-07-06 00:18:00,,0826.4,5.00,0.00,29.4,28.4,00.0,38.1,31.4,25.1,0000.0,0003.78,0002.12,0001.48
2022-07-06 00:19:00,,0826.3,5.01,0.00,29.4,28.4,00.0,38.1,31.4,25.0,0000.0,0003.68,0002.08,0001.46
2022-07-06 00:20:00,,0826.3,5.00,0.00,29.5,28.4,00.0,38.1,31.4,24.5,0000.0,0003.77,0002.09,0001.45
2022-07-06 00:21:00,,0826.2,5.00,0.00,29.5,27.7,00.0,38.1,31.4,24.5,0000.0,0003.69,0002.06,0001.41
2022-07-06 00:22:00,,0826.2,5.00,0.00,29.4,27.0,00.0,38.0,31.3,24.6,0000.0,0003.41,0002.01,0001.40
2022-07-06 00:23:00,,0826.2,5.00,0.00,29.4,26.8,00.0,38.0,31.2,24.7,0000.0,0003.38,0002.00,0001.38
2022-07-06 00:24:00,,0826.1,4.99,0.00,29.3,26.9,00.0,38.0,31.1,24.7,0000.0,0003.38,0002.00,0001.38
2022-07-06 00:25:00,,0826.2,5.01,0.00,29.3,27.0,00.0,38.0,31.0,24.8,0000.0,0003.34,0002.00,0001.35
2022-07-06 00:26:00,,0826.1,4.99,0.00,29.2,27.2,00.0,38.0,31.0,24.9,0000.0,0003.29,0001.97,0001.34
2022-07-06 00:27:00,,0826.1,5.01,0.00,29.2,27.4,00.0,38.0,31.1,24.7,0000.0,0003.58,0001.95,0001.32
2022-07-06 00:28:00,,0826.1,5.01,0.00,29.2,27.6,00.0,38.0,31.1,24.9,0000.0,0004.47,0001.90,0001.29
2022-07-06 00:29:00,,0826.2,4.99,0.00,29.2,27.7,00.0,38.0,31.1,24.8,0000.0,0004.32,0001.85,0001.27
2022-07-06 00:30:00,,0826.1,5.00,0.00,29.3,27.9,00.0,38.0,31.2,24.7,0000.0,0004.27,0001.82,0001.24
2022-07-06 00:31:00,,0826.2,5.00,0.00,29.3,28.0,00.0,38.0,31.2,24.4,0000.0,0004.04,0001.74,0001.22
2022-07-06 00:32:00,,0826.2,5.00,0.00,29.3,28.1,00.0,38.0,31.3,24.4,0000.0,0003.85,0001.68,0001.22
2022-07-06 00:33:00,,0826.2,5.00,0.00,29.3,28.2,00.0,38.1,31.3,24.1,0000.0,0004.10,0001.68,0001.20
2022-07-06 00:34:00,,0826.2,5.00,0.00,29.4,28.3,00.0,38.1,31.4,24.0,0000.0,0004.07,0001.66,0001.19
2022-07-06 00:35:00,,0826.2,5.00,0.00,29.4,28.4,00.0,38.1,31.4,23.9,0000.0,0003.99,0001.60,0001.16
2022-07-06 00:36:00,,0826.2,5.01,0.00,29.4,28.5,00.0,38.1,31.4,23.8,0000.0,0004.05,0001.57,0001.15
2022-07-06 00:37:00,,0826.2,5.00,0.00,29.5,28.1,00.0,38.1,31.4,23.8,0000.0,0004.02,0001.54,0001.14
2022-07-06 00:38:00,,0826.2,5.00,0.00,29.5,27.6,00.0,38.1,31.4,23.9,0000.0,0003.72,0001.53,0001.13
2022-07-06 00:39:00,,0826.2,5.00,0.00,29.4,27.4,00.0,38.1,31.3,23.9,0000.0,0002.71,0001.53,0001.13
2022-07-06 00:40:00,,0826.2,5.00,0.00,29.4,27.5,00.0,38.1,31.2,23.7,0000.0,0002.70,0001.52,0001.12
2022-07-06 00:41:00,,0826.2,5.00,0.00,29.4,27.6,00.0,38.1,31.2,23.9,0000.0,0002.84,0001.55,0001.12
2022-07-06 00:42:00,,0826.2,4.99,0.00,29.4,27.7,00.0,38.1,31.2,23.8,0000.0,0002.91,0001.57,0001.12
2022-07-06 00:43:00,,0826.3,5.02,0.00,29.4,27.8,00.0,38.1,31.3,23.9,0000.0,0002.87,0001.56,0001.11
2022-07-06 00:44:00,,0826.4,5.00,0.00,29.4,27.9,00.0,38.1,31.3,24.0,0000.0,0002.53,0001.51,0001.11
2022-07-06 00:45:00,,0826.4,5.00,0.00,29.4,28.1,00.0,38.1,31.3,24.2,0000.0,0002.46,0001.50,0001.12
2022-07-06 00:46:00,,0826.4,4.99,0.00,29.4,28.2,00.0,38.1,31.4,24.2,0000.0,0002.66,0001.57,0001.13
2022-07-06 00:47:00,,0826.4,5.00,0.00,29.5,28.3,00.0,38.2,31.4,23.9,0000.0,0003.16,0001.60,0001.14
2022-07-06 00:48:00,,0826.4,5.00,0.00,29.5,28.4,00.0,38.2,31.4,23.7,0000.0,0003.14,0001.58,0001.14
2022-07-06 00:49:00,,0826.4,5.00,0.00,29.5,28.3,00.0,38.2,31.5,23.7,0000.0,0003.15,0001.58,0001.16
2022-07-06 00:50:00,,0826.5,5.00,0.00,29.5,27.7,00.0,38.1,31.4,23.9,0000.0,0003.25,0001.57,0001.17
2022-07-06 00:51:00,,0826.4,5.00,0.00,29.5,27.4,00.0,38.1,31.4,23.8,0000.0,0003.57,0001.59,0001.18
2022-07-06 00:52:00,,0826.4,5.00,0.00,29.4,27.4,00.0,38.1,31.3,23.9,0000.0,0003.40,0001.56,0001.19
2022-07-06 00:53:00,,0826.4,5.00,0.00,29.4,27.5,00.0,38.1,31.2,23.7,0000.0,0003.32,0001.54,0001.19
2022-07-06 00:54:00,,0826.2,5.00,0.00,29.4,27.6,00.0,38.1,31.3,23.8,0000.0,0003.35,0001.55,0001.20
2022-07-06 00:55:00,,0826.2,5.00,0.00,29.4,27.8,00.0,38.1,31.3,23.6,0000.0,0003.43,0001.59,0001.21
2022-07-06 00:56:00,,0826.2,4.99,0.00,29.4,27.9,00.0,38.1,31.3,23.5,0000.0,0003.48,0001.61,0001.20
2022-07-06 00:57:00,,0826.2,5.00,0.00,29.4,28.1,00.0,38.2,31.4,23.6,0000.0,0003.38,0001.60,0001.21
2022-07-06 00:58:00,,0826.2,5.01,0.00,29.5,28.2,00.0,38.2,31.4,23.7,0000.0,0002.75,0001.55,0001.20
2022-07-06 00:59:00,,0826.2,5.00,0.00,29.5,28.3,00.0,38.2,31.4,23.4,0000.0,0002.89,0001.61,0001.21
